Regional Weather Roundup
Issued by NWS

Home | Current Version | Previous Version | Text Only | Print | Product List | Glossary Off
Versions: 1 2 3 4 5 6 7 8 9 10 11 12 13 14 15 16 17 18 19 20 21 22 23 24 25 26 27 28 29 30 31 32 33 34 35 36 37 38 39 40 41 42 43 44 45 46 47 48 49 50

000
ASUS45 KPSR 281110
RWRAZ

ARIZONA HOURLY REGIONAL WEATHER ROUNDUP
NATIONAL WEATHER SERVICE PHOENIX AZ
400 AM MST THU MAY 28 2015

NOTE: FAIR INDICATES FEW OR NO CLOUDS BELOW 12,000 FEET WITH NO
SIGNIFICANT WEATHER AND/OR OBSTRUCTIONS TO VISIBILITY.

AZZ001>003-036-281200-
NORTHWEST ARIZONA

CITY           SKY/WX    TMP DP  RH WIND       PRES   REMARKS
BULLHEAD CITY  CLEAR     73  25  16 CALM      29.85S
KINGMAN        CLEAR     57  20  23 SE12      30.00F
$$

AZZ004>008-015-016-018-281200-
NORTH CENTRAL ARIZONA

CITY           SKY/WX    TMP DP  RH WIND       PRES   REMARKS
GRAND CANYON   CLEAR     35  31  85 CALM      30.19S
WILLIAMS       CLEAR     39  28  65 S9        30.26R WCI  33
PRESCOTT       CLEAR     48  28  46 S7        30.11S
FLAGSTAFF      CLEAR     37  29  72 CALM      30.20S
PAYSON         CLEAR     50  27  40 CALM      30.12S
PAGE           CLEAR     60  42  51 CALM      30.06R
$$

AZZ009>014-017-281200-
NORTHEAST ARIZONA

CITY           SKY/WX    TMP DP  RH WIND       PRES   REMARKS
WINSLOW        CLEAR     45  30  55 CALM      30.10S
SAINT JOHNS    CLEAR     50  23  34 S10       30.13S
WINDOW ROCK    PTCLDY    42  30  62 CALM      30.19R
SHOW LOW       CLEAR     41  21  45 S7        30.19S
$$

AZZ023-281200-
GREATER PHOENIX AREA

CITY           SKY/WX    TMP DP  RH WIND       PRES   REMARKS
PHOENIX        CLEAR     73  40  30 SE3       29.87S
BUCKEYE          N/A     63  34  34 CALM      29.88S
LUKE AFB       CLEAR     66  39  37 NW1       29.87S
DEER VALLEY    CLEAR     69  31  24 CALM      29.89S
SCOTTSDALE     CLEAR     68  41  37 CALM      29.90S
MESA-GATEWAY   CLEAR     63  37  39 E7        29.91S
$$

AZZ027-028-281200-
SOUTHWEST MARICOPA COUNTY AND PINAL COUNTY

CITY           SKY/WX    TMP DP  RH WIND       PRES   REMARKS
CASA GRANDE    CLEAR     64  23  20 CALM      29.90S
GILA BEND      FAIR      69  35  29 SE8       29.87R
$$

AZZ503-504-507>509-281200-
SOUTHEAST ARIZONA

CITY           SKY/WX    TMP DP  RH WIND       PRES   REMARKS
TUCSON         CLEAR     65  29  25 SE6       30.00S
DAVIS-MONTHAN  CLEAR     63  30  28 S2        29.98S
NOGALES        CLEAR     55  28  35 CALM      30.05S
SIERRA VISTA   CLEAR     64  26  23 W12       30.10R
DOUGLAS        CLEAR     48  17  29 CALM      30.07S
SAFFORD        CLEAR     60  25  26 SE6       29.99R
$$

AZZ020-021-025-026-031-281200-
SOUTHWEST ARIZONA

CITY           SKY/WX    TMP DP  RH WIND       PRES   REMARKS
YUMA           CLEAR     69  44  40 SW5       29.84R
$$

CAZ031-033-041-043-047-048-061-281200-
SOUTHERN CALIFORNIA

CITY           SKY/WX    TMP DP  RH WIND       PRES   REMARKS
DOWNTOWN L.A.  CLOUDY    58  54  86 CALM      29.95F
L.A. AIRPORT   CLOUDY    58  55  90 SW5       29.96F
SAN DIEGO      CLOUDY    62  55  77 W5        29.97S
BURBANK        CLEAR     57  51  80 CALM      29.94F
ONTARIO        CLEAR     55  52  89 W5        29.95S FOG
RIVERSIDE      CLEAR     57  53  86 CALM      29.96R
PALM SPRINGS   CLEAR     72  52  49 SW3       29.85S
EL CENTRO NAS  CLEAR     67  48  50 SE6       29.82S
IMPERIAL       CLEAR     69  53  56 SE8       29.80F
BLYTHE         CLEAR     73  40  30 S3        29.83S
$$

NVZ020-UTZ003-281200-
SOUTHERN NEVADA-UTAH

CITY           SKY/WX    TMP DP  RH WIND       PRES   REMARKS
LAS VEGAS      CLEAR     73  32  22 SW9       29.87R
SALT LAKE CITY PTCLDY    51  46  83 SE8       30.07F
$$

NMZ009-TXZ055-281200-
NEW MEXICO-WEST TEXAS

CITY           SKY/WX    TMP DP  RH WIND       PRES   REMARKS
ALBUQUERQUE    MOCLDY    54  34  46 SE6       30.10R
EL PASO        PTCLDY    71  51  49 S10       29.99S
$$


........................KEY........................
SKY/WX - SKY CONDITION/WEATHER
TMP    - TEMPERATURE IN FAHRENHEIT
DP     - DEW POINT IN FAHRENHEIT
RH     - RELATIVE HUMIDITY IN PERCENT
WIND   - DIRECTION AND SPEED IN MILES PER HOUR (MPH)
VRB    - VARIABLE WIND DIRECTION
PRES   - MEAN SEA LEVEL PRESSURE IN INCHES OF MERCURY
         F - FALLING PRESSURE   R - RISING PRESSURE
         S - STEADY PRESSURE
VSB    - VISIBILITY IN MILES
HX     - HEAT INDEX IN FAHRENHEIT
WCI    - WIND CHILL INDEX IN FAHRENHEIT
TC     - TEMPERATURE IN CELSIUS WHICH IS ALSO KNOWN AS
         TEMPERATURE IN CENTIGRADE
AFB    - AIR FORCE BASE
         LUKE AFB IS LUKE AIR FORCE BASE
         DAVIS-MONTHAN IS DAVIS-MONTHAN AIR FORCE BASE
NAS    - NAVAL AIR STATION
         EL CENTRO NAS IS EL CENTRO NAVAL AIR STATION
N/A    - NOT AVAILABLE




USA.gov is the U.S. government's official web portal to all federal, state and local government web resources and services.